GW3170 Weather Reports


Display with metric or nautical units.
time (UTC)temp
F
wind
direction
speed
MPH
gust
MPH
rain 1hr
in
rain 24hr
in
rain mn
in
humidity
%
barometer
mb
20260510120103 48 311 1.0 3.0 0.00 0.24 0.00 74 1012.5
20260510115559 48 332 0.0 3.0 0.00 0.24 0.00 74 1012.8
20260510115103 48 287 1.0 3.0 0.00 0.24 0.00 73 1012.5
20260510114604 48 304 0.0 4.0 0.00 0.24 0.00 76 1012.3
20260510114057 48 282 0.0 4.0 0.00 0.24 0.00 76 1012.1
20260510113558 48 289 0.0 3.0 0.00 0.24 0.00 77 1011.9
20260510113102 48 0 1.0 3.0 0.00 0.24 0.00 77 1011.8
20260510112558 48 305 1.0 3.0 0.00 0.24 0.00 76 1011.7
20260510112058 48 307 1.0 3.0 0.00 0.24 0.00 78 1011.5
20260510111626 48 287 1.0 2.0 0.00 0.24 0.00 78 1011.4
20260510111057 48 255 1.0 2.0 0.00 0.24 0.00 79 1011.4
20260510110557 48 269 0.0 1.0 0.00 0.24 0.00 79 1011.3
20260510110059 48 0 0.0 3.0 0.00 0.24 0.00 79 1011.2
20260510105557 48 273 0.0 3.0 0.00 0.24 0.00 78 1011.1
20260510105056 48 284 1.0 3.0 0.00 0.24 0.00 78 1011.1
20260510104608 48 0 1.0 3.0 0.00 0.24 0.00 79 1010.8
20260510104059 48 297 0.0 4.0 0.00 0.24 0.00 78 1010.8
20260510103557 48 254 1.0 4.0 0.00 0.24 0.00 78 1010.4
20260510103056 48 294 0.0 5.0 0.00 0.24 0.00 80 1010.5
20260510102555 48 330 1.0 5.0 0.00 0.24 0.00 80 1010.4
20260510102055 49 323 2.0 5.0 0.00 0.24 0.00 80 1010.3
20260510101553 49 308 2.0 5.0 0.00 0.24 0.00 80 1010.1
20260510101054 49 324 1.0 4.0 0.00 0.24 0.00 80 1010.1
20260510100555 49 333 0.0 3.0 0.00 0.24 0.00 80 1009.9
20260510100058 49 0 0.0 3.0 0.00 0.24 0.00 80 1009.8
20260510095556 49 0 1.0 4.0 0.00 0.24 0.00 80 1009.9
20260510095055 49 293 2.0 4.0 0.00 0.24 0.00 80 1009.8
20260510094554 49 307 1.0 3.0 0.00 0.24 0.00 82 1009.7
20260510094053 49 0 0.0 4.0 0.00 0.24 0.00 83 1009.4
20260510093552 49 341 1.0 4.0 0.00 0.24 0.00 84 1009.3
20260510093056 49 0 0.0 2.0 0.00 0.24 0.00 85 1009.3
20260510092552 50 0 0.0 4.0 0.00 0.24 0.00 87 1009.1
20260510092053 50 0 1.0 4.0 0.00 0.24 0.00 88 1009.0
20260510091558 50 312 1.0 3.0 0.00 0.24 0.00 89 1008.9
20260510091052 50 0 0.0 3.0 0.00 0.24 0.00 90 1009.1
20260510090555 50 0 0.0 4.0 0.00 0.24 0.00 90 1009.0
20260510085557 51 297 1.0 2.0 0.00 0.24 0.00 91 1008.9
20260510085054 51 0 0.0 3.0 0.00 0.24 0.00 91 1008.7
20260510084600 51 0 0.0 3.0 0.00 0.24 0.00 91 1008.5
20260510084056 51 309 2.0 3.0 0.00 0.24 0.00 92 1008.7
20260510083555 50 295 1.0 3.0 0.00 0.24 0.00 92 1008.8
20260510083059 50 0 0.0 3.0 0.00 0.24 0.00 92 1008.7
20260510082557 50 0 0.0 3.0 0.00 0.24 0.00 92 1008.5
20260510082056 50 296 1.0 3.0 0.00 0.24 0.00 92 1008.7
20260510081555 50 0 0.0 2.0 0.00 0.24 0.00 93 1008.6
20260510081055 50 0 1.0 4.0 0.00 0.24 0.00 93 1008.5
20260510080554 50 271 1.0 4.0 0.00 0.24 0.00 93 1008.5
20260510080101 49 288 0.0 2.0 0.00 0.24 0.00 94 1008.5
20260510075557 49 234 0.0 2.0 0.00 0.24 0.00 94 1008.2
20260510075058 48 278 0.0 0.0 0.00 0.24 0.00 93 1008.1
20260510074553 48 0 0.0 0.0 0.00 0.24 0.00 93 1007.9
20260510074056 48 0 0.0 0.0 0.00 0.24 0.00 93 1007.8
20260510073555 48 0 0.0 0.0 0.00 0.24 0.00 93 1007.9
20260510073056 48 0 0.0 0.0 0.00 0.24 0.00 93 1007.7
20260510072556 48 0 0.0 0.0 0.00 0.24 0.00 93 1007.9
20260510072103 48 0 0.0 0.0 0.00 0.24 0.00 93 1007.9
20260510071555 48 0 0.0 0.0 0.00 0.24 0.00 93 1007.9
20260510071057 48 0 0.0 0.0 0.00 0.24 0.00 93 1007.8
20260510070557 47 0 0.0 0.0 0.00 0.24 0.00 92 1007.9
20260510070106 47 0 0.0 0.0 0.00 0.24 0.00 92 1007.7
20260510065558 47 0 0.0 0.0 0.00 0.24 0.00 92 1007.7
20260510065057 47 0 0.0 0.0 0.00 0.24 0.00 92 1007.6
20260510064608 48 0 0.0 0.0 0.00 0.24 0.00 92 1007.6
20260510064057 47 0 0.0 0.0 0.00 0.24 0.00 92 1007.6
20260510063558 48 0 0.0 0.0 0.00 0.24 0.00 92 1007.5
20260510063057 48 0 0.0 0.0 0.00 0.24 0.00 91 1007.4
20260510062600 48 0 0.0 0.0 0.00 0.24 0.00 91 1007.3
20260510062057 48 0 0.0 0.0 0.00 0.24 0.00 91 1007.3
20260510061554 49 0 0.0 0.0 0.00 0.24 0.00 92 1007.3
20260510061102 49 0 0.0 0.0 0.00 0.24 0.00 92 1007.2
20260510060557 49 0 0.0 0.0 0.00 0.24 0.00 92 1007.3
20260510060055 49 0 0.0 0.0 0.00 0.24 0.00 92 1007.4
20260510055557 49 0 0.0 0.0 0.00 0.24 0.00 92 1007.6
20260510055056 49 0 0.0 0.0 0.00 0.24 0.00 92 1007.6
20260510054554 49 0 0.0 0.0 0.00 0.24 0.00 92 1007.7
20260510054057 49 0 0.0 1.0 0.00 0.24 0.00 92 1007.7
20260510053558 49 0 0.0 1.0 0.00 0.24 0.00 91 1007.7
20260510053057 49 0 0.0 0.0 0.00 0.24 0.00 91 1007.7
20260510052558 49 0 0.0 0.0 0.00 0.24 0.00 91 1007.7
20260510052057 49 0 0.0 0.0 0.00 0.24 0.00 91 1007.6
20260510051608 50 0 0.0 0.0 0.00 0.24 0.00 91 1007.7
20260510051103 50 0 0.0 0.0 0.00 0.24 0.00 91 1007.6
20260510050557 50 0 0.0 1.0 0.00 0.24 0.00 90 1007.7
20260510050058 50 0 0.0 2.0 0.00 0.24 0.00 91 1007.8
20260510045557 50 0 0.0 3.0 0.00 0.24 0.00 91 1007.8
20260510045100 50 0 0.0 3.0 0.00 0.24 0.00 90 1007.7
20260510044609 51 216 0.0 3.0 0.00 0.24 0.00 91 1007.6
20260510044057 51 234 0.0 2.0 0.00 0.24 0.00 90 1007.5
20260510043557 51 0 0.0 2.0 0.00 0.24 0.00 90 1007.4
20260510043054 51 0 0.0 2.0 0.00 0.24 0.00 90 1007.4
20260510042556 51 0 0.0 3.0 0.00 0.24 0.00 90 1007.3
20260510042059 51 205 0.0 3.0 0.00 0.24 0.00 90 1007.4
20260510041607 51 223 0.0 3.0 0.00 0.24 0.00 91 1007.2
20260510041056 51 252 0.0 4.0 0.01 0.24 0.00 91 1007.2
20260510040558 51 231 2.0 4.0 0.01 0.24 0.00 91 1007.2
20260510040059 51 223 0.0 2.0 0.01 0.24 0.00 91 1007.1
20260510035555 52 226 0.0 3.0 0.01 0.24 0.24 91 1007.0
20260510035055 52 206 1.0 3.0 0.01 0.24 0.24 91 1006.9
20260510034605 52 0 1.0 4.0 0.01 0.24 0.24 91 1006.8
20260510034054 52 143 2.0 4.0 0.02 0.24 0.24 91 1006.8
20260510033554 52 0 1.0 3.0 0.02 0.24 0.24 91 1006.8
20260510033057 52 0 0.0 3.0 0.02 0.24 0.24 91 1006.5
20260510032556 52 0 0.0 4.0 0.03 0.24 0.24 91 1006.5
20260510032052 52 0 0.0 4.0 0.04 0.24 0.24 91 1006.4
20260510031608 52 131 1.0 4.0 0.05 0.24 0.24 91 1006.5
20260510031056 52 0 0.0 4.0 0.04 0.23 0.23 91 1006.5
20260510030554 52 131 1.0 4.0 0.05 0.23 0.23 91 1006.5
20260510030106 52 97 0.0 5.0 0.07 0.23 0.23 90 1006.7
20260510025553 52 134 2.0 5.0 0.13 0.23 0.23 90 1006.7
20260510025056 52 117 1.0 5.0 0.23 0.23 0.23 90 1006.7
20260510024557 52 148 2.0 5.0 0.23 0.23 0.23 89 1006.6
20260510024055 52 136 1.0 4.0 0.22 0.22 0.22 89 1006.8
20260510023556 52 0 1.0 6.0 0.22 0.22 0.22 88 1007.0
20260510023056 53 0 2.0 6.0 0.22 0.22 0.22 88 1007.2
20260510022559 53 245 2.0 5.0 0.21 0.21 0.21 88 1007.6
20260510022057 53 293 2.0 7.0 0.20 0.20 0.20 88 1007.5
20260510021555 53 262 0.0 7.0 0.19 0.19 0.19 87 1007.2
20260510021055 53 300 3.0 8.0 0.19 0.19 0.19 87 1007.3
20260510020552 53 249 4.0 15.0 0.18 0.18 0.18 86 1007.3
20260510020101 54 268 6.0 17.0 0.16 0.16 0.16 84 1007.2
20260510015555 56 291 9.0 21.0 0.10 0.10 0.10 80 1007.0
20260510015052 57 262 12.0 21.0 0.00 0.00 0.00 79 1006.9
20260510014600 57 290 1.0 6.0 0.00 0.00 0.00 80 1006.4
20260510014052 57 0 0.0 3.0 0.00 0.00 0.00 78 1005.3
20260510013555 57 0 0.0 5.0 0.00 0.00 0.00 78 1005.1
20260510013103 57 123 0.0 5.0 0.00 0.00 0.00 78 1005.1
20260510012556 57 128 0.0 5.0 0.00 0.00 0.00 78 1005.0
20260510012053 58 0 0.0 4.0 0.00 0.00 0.00 78 1004.9
20260510011555 58 0 1.0 4.0 0.00 0.00 0.00 77 1004.9
20260510011053 58 0 0.0 4.0 0.00 0.00 0.00 77 1005.0
20260510010557 58 148 1.0 4.0 0.00 0.00 0.00 77 1004.8
20260510010058 58 127 1.0 4.0 0.00 0.00 0.00 77 1004.8
20260510005558 58 0 0.0 2.0 0.00 0.00 0.00 77 1004.6
20260510005101 58 0 0.0 2.0 0.00 0.00 0.00 77 1004.6
20260510004557 58 99 0.0 2.0 0.00 0.00 0.00 76 1004.5
20260510004057 58 0 1.0 3.0 0.00 0.00 0.00 76 1004.6
20260510003557 58 0 0.0 3.0 0.00 0.00 0.00 76 1004.7
20260510003100 58 100 0.0 3.0 0.00 0.00 0.00 75 1004.7
20260510002602 59 0 0.0 5.0 0.00 0.00 0.00 75 1004.7
20260510002057 59 0 1.0 5.0 0.00 0.00 0.00 75 1004.5
20260510001557 59 150 2.0 5.0 0.00 0.00 0.00 74 1004.4
20260510001057 59 126 0.0 5.0 0.00 0.00 0.00 74 1004.4
20260510000557 59 0 0.0 5.0 0.00 0.00 0.00 73 1004.5
20260510000111 60 285 1.0 4.0 0.00 0.00 0.00 73 1004.5
20260509235601 60 277 0.0 5.0 0.00 0.00 0.00 72 1004.5
20260509235057 60 236 2.0 5.0 0.00 0.00 0.00 72 1004.4
20260509234621 60 118 2.0 5.0 0.00 0.00 0.00 71 1004.5
20260509234058 61 0 0.0 3.0 0.00 0.00 0.00 71 1004.4
20260509233559 61 0 0.0 6.0 0.00 0.00 0.00 70 1004.4
20260509233058 62 138 1.0 6.0 0.00 0.00 0.00 69 1004.4
20260509232557 62 198 0.0 6.0 0.00 0.00 0.00 69 1004.4
20260509232058 62 120 2.0 6.0 0.00 0.00 0.00 69 1004.4
20260509231611 62 118 1.0 4.0 0.00 0.00 0.00 69 1004.3
20260509231057 62 155 1.0 7.0 0.00 0.00 0.00 69 1004.4
20260509230557 62 165 1.0 7.0 0.00 0.00 0.00 69 1004.4
20260509230105 62 105 1.0 8.0 0.00 0.00 0.00 68 1004.4
20260509225557 63 0 1.0 8.0 0.00 0.00 0.00 67 1004.5
20260509225100 63 127 1.0 5.0 0.00 0.00 0.00 66 1004.4
20260509224603 64 129 2.0 5.0 0.00 0.00 0.00 66 1004.2
20260509224100 64 140 1.0 4.0 0.00 0.00 0.00 66 1004.3
20260509223558 64 147 2.0 6.0 0.00 0.00 0.00 65 1004.2
20260509223057 64 135 2.0 6.0 0.00 0.00 0.00 65 1004.3
20260509222557 64 137 2.0 7.0 0.00 0.00 0.00 66 1004.3
20260509222058 64 229 1.0 8.0 0.00 0.00 0.00 66 1004.5
20260509221559 63 142 3.0 8.0 0.00 0.00 0.00 67 1004.6
20260509221057 64 130 3.0 10.0 0.00 0.00 0.00 65 1004.5
20260509220552 64 143 2.0 10.0 0.00 0.00 0.00 65 1004.4
20260509220056 64 197 2.0 8.0 0.00 0.00 0.00 65 1004.5
20260509215553 64 200 3.0 8.0 0.00 0.00 0.00 66 1004.5
20260509215056 64 131 2.0 10.0 0.00 0.00 0.00 67 1004.6
20260509214556 64 184 2.0 10.0 0.00 0.00 0.00 65 1004.6
20260509214055 64 224 4.0 9.0 0.00 0.00 0.00 66 1004.7
20260509213555 63 229 3.0 11.0 0.00 0.00 0.00 67 1004.6
20260509213055 63 134 3.0 11.0 0.00 0.00 0.00 66 1004.6
20260509212553 64 252 4.0 11.0 0.00 0.00 0.00 66 1004.7
20260509212055 64 213 2.0 11.0 0.00 0.00 0.00 65 1004.7
20260509211601 65 133 5.0 11.0 0.00 0.00 0.00 64 1004.7
20260509211056 65 219 2.0 11.0 0.00 0.00 0.00 65 1004.7
20260509210557 65 237 4.0 10.0 0.00 0.00 0.00 63 1004.7
20260509210109 65 231 4.0 10.0 0.00 0.00 0.00 63 1004.6
20260509205558 65 103 3.0 11.0 0.00 0.00 0.00 63 1004.7
20260509205055 65 239 3.0 11.0 0.00 0.00 0.00 64 1004.6
20260509204554 65 199 3.0 12.0 0.00 0.00 0.00 65 1004.8
20260509204056 65 144 6.0 12.0 0.00 0.00 0.00 63 1004.8
20260509203559 65 65 4.0 11.0 0.00 0.00 0.00 63 1004.7
20260509203056 65 227 3.0 11.0 0.00 0.00 0.00 65 1004.7
20260509202559 64 70 3.0 11.0 0.00 0.00 0.00 65 1004.9
20260509202055 64 211 3.0 11.0 0.00 0.00 0.00 64 1004.9
20260509201559 64 79 2.0 12.0 0.00 0.00 0.00 65 1004.9
20260509201052 64 136 3.0 12.0 0.00 0.00 0.00 65 1004.9
20260509200552 64 225 3.0 8.0 0.00 0.00 0.00 66 1004.8
20260509200104 63 109 3.0 8.0 0.00 0.00 0.00 66 1004.9
20260509195557 63 124 2.0 9.0 0.00 0.00 0.00 68 1005.0
20260509195059 63 205 3.0 9.0 0.00 0.00 0.00 67 1005.1
20260509194558 63 144 4.0 12.0 0.00 0.00 0.00 66 1005.1
20260509194054 63 117 3.0 12.0 0.00 0.00 0.00 66 1005.3
20260509193553 63 224 4.0 12.0 0.00 0.00 0.00 66 1005.3
20260509193057 63 240 4.0 9.0 0.00 0.00 0.00 68 1005.4
20260509192556 63 248 3.0 8.0 0.00 0.00 0.00 67 1005.3
20260509192052 63 203 2.0 7.0 0.00 0.00 0.00 67 1005.6
20260509191558 64 225 1.0 12.0 0.00 0.00 0.00 66 1005.6
20260509191057 64 228 4.0 12.0 0.00 0.00 0.00 67 1005.8
20260509190559 63 117 3.0 11.0 0.00 0.00 0.00 70 1005.9
20260509190109 62 129 4.0 8.0 0.00 0.00 0.00 69 1006.0
20260509185555 61 240 1.0 8.0 0.00 0.00 0.00 71 1006.2
20260509185056 61 250 3.0 8.0 0.00 0.00 0.00 70 1006.2
20260509184610 61 124 2.0 6.0 0.00 0.00 0.00 73 1006.3
20260509184055 60 106 2.0 7.0 0.00 0.00 0.00 72 1006.3
20260509183555 60 118 1.0 7.0 0.00 0.00 0.00 73 1006.4
20260509183059 60 108 2.0 8.0 0.00 0.00 0.00 71 1006.3
20260509182554 60 146 1.0 8.0 0.00 0.00 0.00 73 1006.4
20260509182055 60 218 1.0 8.0 0.00 0.00 0.00 72 1006.4
20260509181556 60 130 2.0 8.0 0.00 0.00 0.00 71 1006.4
20260509181055 60 120 1.0 5.0 0.00 0.00 0.00 71 1006.4
20260509180559 60 149 3.0 5.0 0.00 0.00 0.00 72 1006.4
20260509175555 59 134 1.0 6.0 0.00 0.02 0.00 73 1006.5
20260509175056 59 148 1.0 6.0 0.00 0.02 0.00 73 1006.5
20260509174555 59 124 0.0 5.0 0.00 0.02 0.00 74 1006.5
20260509174056 59 215 1.0 5.0 0.00 0.02 0.00 73 1006.5
20260509173555 58 0 0.0 6.0 0.00 0.02 0.00 74 1006.5
20260509173100 58 210 2.0 6.0 0.00 0.02 0.00 74 1006.6
20260509172555 58 113 2.0 6.0 0.00 0.02 0.00 73 1006.5
20260509172056 58 0 1.0 4.0 0.00 0.02 0.00 75 1006.7
20260509171559 58 133 1.0 3.0 0.00 0.02 0.00 74 1006.6
20260509171055 58 90 1.0 4.0 0.00 0.02 0.00 75 1006.7
20260509170555 58 104 0.0 4.0 0.00 0.02 0.00 75 1006.8
20260509165557 58 105 1.0 3.0 0.00 0.02 0.00 76 1006.8
20260509165056 57 114 1.0 3.0 0.00 0.02 0.00 76 1006.9
20260509164554 57 133 0.0 3.0 0.00 0.02 0.00 77 1006.9
20260509164055 56 126 0.0 4.0 0.00 0.02 0.00 77 1007.0
20260509163556 56 0 1.0 4.0 0.00 0.02 0.00 77 1007.1
20260509163104 56 80 0.0 0.0 0.00 0.02 0.00 76 1007.1
20260509162558 56 0 0.0 2.0 0.00 0.02 0.00 76 1007.3
20260509162056 55 0 0.0 2.0 0.00 0.02 0.00 77 1007.4
20260509161557 55 0 1.0 2.0 0.00 0.02 0.00 76 1007.4
20260509161058 55 0 0.0 1.0 0.00 0.02 0.00 77 1007.4
20260509160553 55 0 0.0 2.0 0.00 0.02 0.00 77 1007.5
20260509160055 55 0 0.0 2.0 0.00 0.02 0.00 77 1007.6
20260509155557 55 0 0.0 3.0 0.00 0.02 0.00 75 1007.7
20260509155058 55 0 0.0 4.0 0.00 0.02 0.00 75 1007.6
20260509154608 56 143 0.0 4.0 0.00 0.02 0.00 74 1007.7
20260509154055 56 0 1.0 4.0 0.00 0.02 0.00 73 1007.7
20260509153552 56 131 0.0 4.0 0.00 0.02 0.00 74 1007.7
20260509153056 56 0 0.0 4.0 0.00 0.02 0.00 75 1007.7
20260509152559 56 0 1.0 4.0 0.00 0.02 0.00 74 1007.7
20260509152055 56 105 0.0 2.0 0.00 0.02 0.00 74 1007.9
20260509151556 56 78 0.0 3.0 0.00 0.02 0.00 75 1007.9
20260509151100 56 0 0.0 3.0 0.00 0.02 0.00 75 1007.9
20260509150555 56 0 0.0 4.0 0.00 0.02 0.00 75 1008.0
20260509150110 56 130 0.0 4.0 0.00 0.02 0.00 75 1008.0
20260509145555 55 248 0.0 3.0 0.00 0.04 0.00 75 1008.1
20260509145056 55 0 1.0 3.0 0.00 0.04 0.00 75 1008.1
20260509144602 55 0 1.0 3.0 0.00 0.04 0.00 76 1008.1
20260509144056 55 141 1.0 4.0 0.00 0.04 0.00 75 1008.2
20260509143556 55 125 0.0 4.0 0.00 0.04 0.00 74 1008.2
20260509143105 55 0 0.0 4.0 0.00 0.04 0.00 74 1008.3
20260509142555 54 0 0.0 2.0 0.00 0.04 0.00 75 1008.3
20260509142055 53 0 0.0 4.0 0.00 0.04 0.00 76 1008.3
20260509141558 53 0 0.0 4.0 0.00 0.04 0.00 76 1008.3
20260509141055 53 0 1.0 4.0 0.00 0.04 0.00 76 1008.4
20260509140552 53 0 0.0 2.0 0.00 0.04 0.00 77 1008.5
20260509140105 52 0 0.0 3.0 0.00 0.04 0.00 77 1008.5
20260509135552 52 0 1.0 3.0 0.00 0.05 0.00 78 1008.6
20260509135056 51 0 0.0 1.0 0.00 0.05 0.00 78 1008.5
20260509134555 51 0 0.0 2.0 0.00 0.05 0.00 78 1008.6
20260509134100 50 0 0.0 2.0 0.00 0.05 0.00 79 1008.5
20260509133555 50 0 0.0 3.0 0.00 0.05 0.00 79 1008.6
20260509133105 49 0 1.0 3.0 0.00 0.05 0.00 80 1008.6
20260509132553 49 0 0.0 3.0 0.00 0.05 0.00 80 1008.6
20260509132055 48 72 0.0 4.0 0.00 0.05 0.00 81 1008.7
20260509131556 48 117 1.0 4.0 0.00 0.05 0.00 81 1008.7
20260509131054 48 0 0.0 3.0 0.00 0.05 0.00 81 1008.9
20260509130556 47 121 0.0 2.0 0.00 0.05 0.00 82 1008.9
20260509130058 47 0 1.0 2.0 0.00 0.05 0.00 82 1009.0
20260509125555 46 0 0.0 2.0 0.00 0.05 0.00 83 1009.0
20260509125055 46 143 0.0 0.0 0.00 0.05 0.00 84 1008.9
20260509124644 45 0 0.0 0.0 0.00 0.05 0.00 85 1008.9
20260509124059 45 0 0.0 0.0 0.00 0.05 0.00 85 1009.0
20260509123559 45 0 0.0 0.0 0.00 0.05 0.00 86 1009.0
20260509123103 44 0 0.0 0.0 0.00 0.05 0.00 87 1008.9
20260509122555 44 0 0.0 0.0 0.00 0.05 0.00 87 1009.0
20260509122053 44 0 0.0 0.0 0.00 0.05 0.00 88 1009.1
20260509121602 43 0 0.0 0.0 0.00 0.05 0.00 89 1009.0
20260509121056 43 0 0.0 0.0 0.00 0.05 0.00 89 1009.1
20260509120559 43 0 0.0 0.0 0.00 0.05 0.00 90 1009.1